Location: Unspecified
(0.0000°N, 0.0000°E)
Time: 20:45:10
(UTC+01:00)

NATO 3D Rocket - Visible Passes

Search period start: 23 January 2018 00:00
Search period end: 02 February 2018 00:00
Orbit: 670 x 2296 km, 21.5° (Epoch: 22 January)

Date Brightness Start Highest point End Pass type
(mag) Time Alt. Az. Time Alt. Az. Time Alt. Az.
23 Jan 6.0 04:09:29 42° NNE 04:09:29 42° NNE 04:20:51 10° E visible
23 Jan 5.8 06:05:01 19° WNW 06:14:47 84° NNE 06:29:09 10° ESE visible
23 Jan 5.2 20:51:49 10° WNW 20:54:51 17° NNW 20:55:02 17° NNW visible
24 Jan 6.8 03:15:55 22° ENE 03:15:55 22° ENE 03:20:35 10° E visible
24 Jan 5.5 05:11:27 44° NW 05:15:57 70° NNE 05:29:51 10° ESE visible
24 Jan 4.9 19:53:48 10° WNW 19:57:44 23° NNW 20:01:30 10° NNE visible
25 Jan 5.5 04:17:54 55° NNE 04:17:54 55° NNE 04:30:11 10° E visible
25 Jan 5.8 06:13:27 17° WNW 06:23:28 77° SSW 06:37:47 10° ESE visible
26 Jan 6.5 03:24:22 28° ENE 03:24:22 28° ENE 03:30:14 10° E visible
26 Jan 5.4 05:19:54 43° WNW 05:24:40 89° NNE 05:38:37 10° ESE visible
26 Jan 5.4 20:04:24 10° NW 20:07:04 14° NNW 20:09:37 10° NNE visible
27 Jan 5.1 04:26:22 74° NNE 04:26:22 74° NNE 04:39:09 10° ESE visible
27 Jan 5.9 06:21:54 13° W 06:32:19 60° SSW 06:46:12 10° ESE visible
28 Jan 6.2 03:32:49 35° E 03:32:49 35° E 03:39:30 10° E visible
28 Jan 5.5 05:28:22 37° W 05:33:29 70° SSW 05:47:06 10° ESE visible
29 Jan 7.3 02:39:18 11° E 02:39:18 11° E 02:39:46 10° E visible
29 Jan 5.0 04:34:50 83° SW 04:35:02 84° SSW 04:47:48 10° ESE visible
29 Jan 6.2 06:30:45 10° W 06:41:21 46° SSW 06:54:32 10° SE visible
30 Jan 6.0 03:41:18 41° ESE 03:41:18 41° ESE 03:48:24 10° ESE visible
30 Jan 5.7 05:36:51 29° W 05:42:30 53° SSW 05:55:25 10° SE visible
31 Jan 7.1 02:47:46 14° ESE 02:47:46 14° ESE 02:49:00 10° ESE visible
31 Jan 5.1 04:43:19 61° SW 04:44:01 62° SSW 04:56:12 10° ESE visible
31 Jan 6.5 06:40:43 10° WSW 06:50:39 36° SSW 07:02:54 10° SE visible
01 Feb 5.8 03:49:46 42° SE 03:49:46 42° SE 03:56:59 10° ESE visible
01 Feb 6.1 05:45:19 20° WSW 05:51:46 40° SSW 06:03:40 10° SE visible
